�������l�o���
Date,Time,MP-1(��Sv/h),MP-2(��Sv/h),MP-3(��Sv/h),MP-4(��Sv/h),MP-5(��Sv/h),MP-6(��Sv/h),MP-7(��Sv/h),MP-8(��Sv/h),����,����(m/s),���J
2020/07/30,00:00,0.640,0.911,0.574,1.097,0.772,0.382,0.654,0.619,�k�k��,1.5,��
2020/07/30,00:10,0.637,0.911,0.573,1.096,0.772,0.382,0.655,0.619,�k�k��,1.4,��
2020/07/30,00:20,0.638,0.910,0.574,1.097,0.771,0.382,0.651,0.619,�k��,1.1,��
2020/07/30,00:30,0.638,0.910,0.573,1.097,0.771,0.383,0.654,0.619,�k�k��,1.4,��
2020/07/30,00:40,0.639,0.912,0.573,1.096,0.770,0.382,0.652,0.620,�k�k��,1.7,��
2020/07/30,00:50,0.639,0.911,0.573,1.099,0.771,0.381,0.653,0.621,�k,2.0,��
2020/07/30,01:00,0.639,0.911,0.574,1.096,0.771,0.383,0.653,0.619,�k�k��,1.5,��
2020/07/30,01:10,0.640,0.911,0.574,1.099,0.772,0.382,0.656,0.620,�k�k��,1.7,��
2020/07/30,01:20,0.640,0.911,0.574,1.099,0.771,0.383,0.654,0.620,�k��,1.7,��
2020/07/30,01:30,0.639,0.910,0.574,1.098,0.772,0.382,0.654,0.621,�k��,1.5,��
2020/07/30,01:40,0.638,0.911,0.573,1.099,0.773,0.383,0.652,0.619,���k��,1.2,��
2020/07/30,01:50,0.638,0.909,0.573,1.099,0.773,0.381,0.655,0.620,���k��,1.4,��
2020/07/30,02:00,0.639,0.911,0.575,1.096,0.773,0.383,0.653,0.619,�k��,1.2,��
2020/07/30,02:10,0.638,0.911,0.573,1.099,0.774,0.384,0.654,0.621,�k��,1.5,��
2020/07/30,02:20,0.640,0.913,0.573,1.098,0.774,0.383,0.653,0.619,�k�k��,1.5,��
2020/07/30,02:30,0.640,0.911,0.574,1.100,0.773,0.385,0.655,0.618,���k��,1.2,��
2020/07/30,02:40,0.640,0.912,0.573,1.099,0.774,0.382,0.654,0.620,�k��,0.9,��
2020/07/30,02:50,0.639,0.911,0.573,1.099,0.774,0.382,0.656,0.619,�k��,0.9,��
2020/07/30,03:00,0.640,0.911,0.573,1.101,0.775,0.384,0.654,0.619,���k��,0.8,��
2020/07/30,03:10,0.639,0.911,0.575,1.099,0.774,0.382,0.652,0.619,��,1.4,��
2020/07/30,03:20,0.638,0.911,0.574,1.098,0.772,0.383,0.655,0.621,��,0.9,��
2020/07/30,03:30,0.639,0.910,0.574,1.099,0.774,0.383,0.654,0.620,���쓌,0.8,��
2020/07/30,03:40,0.640,0.911,0.575,1.100,0.775,0.383,0.653,0.620,���쓌,1.5,�L
2020/07/30,03:50,0.639,0.908,0.575,1.100,0.773,0.381,0.653,0.620,���쓌,1.2,��
2020/07/30,04:00,0.640,0.914,0.574,1.097,0.774,0.385,0.656,0.620,���쓌,1.4,��
2020/07/30,04:10,0.640,0.911,0.575,1.099,0.774,0.383,0.653,0.620,�쓌,1.2,��
2020/07/30,04:20,0.639,0.912,0.574,1.099,0.773,0.384,0.653,0.620,���쓌,0.9,��
2020/07/30,04:30,0.637,0.912,0.573,1.099,0.775,0.383,0.655,0.619,���쓌,1.2,�L
2020/07/30,04:40,0.639,0.912,0.574,1.101,0.775,0.383,0.653,0.619,�쓌,1.1,�L
2020/07/30,04:50,0.639,0.909,0.574,1.100,0.776,0.383,0.653,0.620,�쓌,1.2,�L
2020/07/30,05:00,0.640,0.912,0.574,1.100,0.774,0.383,0.654,0.620,���쓌,0.9,�L
2020/07/30,05:10,0.640,0.910,0.575,1.100,0.775,0.384,0.654,0.620,-,CALM,�L
2020/07/30,05:20,0.641,0.915,0.575,1.100,0.774,0.383,0.654,0.619,���k��,1.1,�L
2020/07/30,05:30,0.639,0.912,0.576,1.103,0.775,0.383,0.652,0.620,�k�k��,0.6,�L
2020/07/30,05:40,0.639,0.910,0.576,1.101,0.774,0.384,0.652,0.621,��쐼,1.1,�L
2020/07/30,05:50,0.641,0.910,0.575,1.099,0.776,0.383,0.653,0.619,���쐼,0.9,�L
2020/07/30,06:00,0.639,0.909,0.575,1.098,0.775,0.384,0.654,0.619,�k�k��,1.2,�L
2020/07/30,06:10,0.640,0.909,0.575,1.099,0.777,0.385,0.653,0.620,��,1.4,�L
2020/07/30,06:20,0.639,0.910,0.577,1.100,0.777,0.386,0.653,0.619,�k��,0.6,�L
2020/07/30,06:30,0.639,0.907,0.577,1.098,0.776,0.385,0.654,0.619,�쓌,0.9,�L
2020/07/30,06:40,0.638,0.909,0.576,1.098,0.774,0.385,0.652,0.619,-,CALM,�L
2020/07/30,06:50,0.638,0.907,0.576,1.099,0.774,0.387,0.653,0.619,��쓌,0.6,�L
2020/07/30,07:00,0.639,0.906,0.576,1.096,0.773,0.386,0.653,0.621,-,CALM,�L
2020/07/30,07:10,0.636,0.906,0.575,1.096,0.772,0.384,0.652,0.620,��,1.4,�L
2020/07/30,07:20,0.638,0.906,0.575,1.095,0.772,0.384,0.651,0.618,��쓌,0.9,��
2020/07/30,07:30,0.636,0.908,0.572,1.097,0.772,0.385,0.652,0.618,��쓌,1.2,�L
2020/07/30,07:40,0.637,0.906,0.573,1.094,0.772,0.383,0.653,0.618,�쓌,1.1,�L
2020/07/30,07:50,0.637,0.905,0.572,1.094,0.772,0.383,0.651,0.617,��,1.5,�L
2020/07/30,08:00,0.638,0.907,0.573,1.094,0.770,0.383,0.653,0.618,�쐼,2.0,�L
2020/07/30,08:10,0.637,0.907,0.572,1.095,0.769,0.381,0.651,0.617,�쐼,2.0,�L
2020/07/30,08:20,0.637,0.904,0.575,1.096,0.768,0.383,0.650,0.616,�쐼,1.9,�L
2020/07/30,08:30,0.636,0.901,0.572,1.094,0.768,0.382,0.652,0.618,��쐼,2.3,�L
2020/07/30,08:40,0.634,0.901,0.572,1.094,0.769,0.382,0.650,0.615,��쐼,1.7,�L
2020/07/30,08:50,0.638,0.901,0.573,1.096,0.768,0.383,0.651,0.616,��쐼,1.9,�L
2020/07/30,09:00,0.637,0.898,0.572,1.093,0.770,0.383,0.651,0.617,��,1.9,�L
2020/07/30,09:10,0.636,0.901,0.570,1.097,0.771,0.384,0.650,0.617,��,1.5,�L
2020/07/30,09:20,0.635,0.902,0.572,1.093,0.770,0.383,0.651,0.618,��,1.7,�L
2020/07/30,09:30,0.639,0.901,0.572,1.095,0.770,0.384,0.651,0.617,��쓌,2.3,�L
2020/07/30,09:40,0.637,0.900,0.572,1.095,0.770,0.382,0.650,0.617,��쓌,2.8,�L
2020/07/30,09:50,0.639,0.902,0.572,1.097,0.770,0.383,0.653,0.616,��쓌,2.3,�L
2020/07/30,10:00,0.638,0.900,0.572,1.094,0.770,0.383,0.652,0.614,��쓌,2.3,��
2020/07/30,10:10,0.638,0.901,0.573,1.094,0.768,0.382,0.651,0.618,��쓌,3.5,��
2020/07/30,10:20,0.640,0.903,0.571,1.094,0.769,0.383,0.651,0.616,��쓌,3.8,��
2020/07/30,10:30,0.637,0.901,0.573,1.094,0.771,0.382,0.652,0.615,��쓌,3.9,��
2020/07/30,10:40,0.637,0.903,0.570,1.094,0.770,0.382,0.654,0.615,�쓌,4.7,��
2020/07/30,10:50,0.637,0.904,0.569,1.094,0.769,0.384,0.652,0.615,��쓌,4.2,��
2020/07/30,11:00,0.638,0.904,0.571,1.092,0.770,0.382,0.653,0.616,�쓌,3.6,��
2020/07/30,11:10,0.639,0.903,0.571,1.092,0.771,0.384,0.653,0.616,��쓌,3.2,��
2020/07/30,11:20,0.639,0.903,0.572,1.096,0.772,0.383,0.653,0.617,��쓌,3.8,��
2020/07/30,11:30,0.639,0.904,0.570,1.093,0.773,0.384,0.653,0.618,��쓌,3.6,��
2020/07/30,11:40,0.638,0.907,0.571,1.094,0.771,0.384,0.652,0.616,��쓌,3.5,��
2020/07/30,11:50,0.637,0.905,0.572,1.094,0.774,0.385,0.654,0.617,��쓌,4.2,��
2020/07/30,12:00,0.639,0.908,0.571,1.096,0.773,0.384,0.656,0.617,��쓌,3.9,��
2020/07/30,12:10,0.638,0.912,0.571,1.096,0.774,0.384,0.655,0.618,��쓌,3.9,��
2020/07/30,12:20,0.640,0.911,0.573,1.096,0.774,0.384,0.656,0.617,��쓌,4.2,��
2020/07/30,12:30,0.641,0.914,0.572,1.098,0.775,0.385,0.656,0.618,��쓌,3.4,��
2020/07/30,12:40,0.642,0.914,0.573,1.099,0.775,0.384,0.656,0.619,��쓌,4.3,��
2020/07/30,12:50,0.642,0.914,0.572,1.098,0.778,0.385,0.655,0.617,�쓌,3.9,��
2020/07/30,13:00,0.642,0.913,0.574,1.097,0.777,0.384,0.658,0.618,�쓌,3.9,��
2020/07/30,13:10,0.642,0.915,0.574,1.098,0.775,0.386,0.657,0.620,�쓌,4.5,��
2020/07/30,13:20,0.642,0.916,0.574,1.098,0.775,0.386,0.658,0.618,��쓌,3.9,��
2020/07/30,13:30,0.642,0.914,0.573,1.100,0.778,0.385,0.656,0.617,�쓌,4.5,��
2020/07/30,13:40,0.642,0.916,0.574,1.100,0.777,0.385,0.657,0.618,��쓌,4.6,��
2020/07/30,13:50,0.640,0.916,0.576,1.099,0.778,0.386,0.657,0.620,�쓌,4.2,��
2020/07/30,14:00,0.642,0.914,0.574,1.101,0.777,0.384,0.656,0.620,�쓌,4.7,��
2020/07/30,14:10,0.641,0.915,0.572,1.100,0.779,0.385,0.657,0.619,��쓌,4.2,��
2020/07/30,14:20,0.643,0.916,0.574,1.099,0.776,0.387,0.657,0.618,��쓌,4.8,��
2020/07/30,14:30,0.642,0.916,0.574,1.099,0.778,0.386,0.658,0.618,��쓌,4.6,��
2020/07/30,14:40,0.642,0.915,0.575,1.100,0.775,0.386,0.657,0.618,��쓌,4.6,��
2020/07/30,14:50,0.642,0.915,0.575,1.101,0.778,0.385,0.657,0.619,��쓌,4.3,��
2020/07/30,15:00,0.641,0.918,0.574,1.098,0.778,0.386,0.656,0.618,��쓌,4.3,��
2020/07/30,15:10,0.643,0.917,0.576,1.099,0.778,0.385,0.656,0.618,��쓌,4.6,��
2020/07/30,15:20,0.641,0.919,0.575,1.099,0.778,0.386,0.657,0.620,��쓌,4.6,��
2020/07/30,15:30,0.640,0.919,0.574,1.101,0.777,0.386,0.656,0.619,��쓌,3.9,��
2020/07/30,15:40,0.641,0.920,0.573,1.100,0.781,0.386,0.656,0.619,��쓌,3.6,��
2020/07/30,15:50,0.643,0.920,0.574,1.102,0.778,0.387,0.657,0.617,��쓌,3.7,��
2020/07/30,16:00,0.642,0.919,0.576,1.102,0.778,0.387,0.656,0.618,��쓌,3.5,��
2020/07/30,16:10,0.643,0.922,0.575,1.102,0.781,0.387,0.659,0.620,��쓌,3.4,��
2020/07/30,16:20,0.641,0.921,0.575,1.102,0.779,0.387,0.657,0.620,��쓌,3.1,��
2020/07/30,16:30,0.641,0.922,0.577,1.103,0.778,0.386,0.657,0.620,��쓌,2.9,��
2020/07/30,16:40,0.642,0.920,0.577,1.103,0.779,0.387,0.657,0.621,��,3.4,��
2020/07/30,16:50,0.643,0.921,0.576,1.101,0.780,0.387,0.656,0.618,��,3.4,��
2020/07/30,17:00,0.642,0.922,0.577,1.104,0.779,0.387,0.657,0.619,��쓌,3.4,��
2020/07/30,17:10,0.643,0.922,0.575,1.104,0.778,0.388,0.656,0.621,��,3.6,��
2020/07/30,17:20,0.644,0.921,0.577,1.103,0.779,0.387,0.657,0.619,��,2.6,��
2020/07/30,17:30,0.642,0.920,0.577,1.105,0.779,0.387,0.658,0.620,��,3.0,��
2020/07/30,17:40,0.643,0.921,0.575,1.107,0.780,0.387,0.656,0.619,��쓌,2.6,��
2020/07/30,17:50,0.643,0.921,0.578,1.103,0.780,0.386,0.658,0.619,��,2.9,��
2020/07/30,18:00,0.642,0.921,0.577,1.106,0.781,0.387,0.658,0.621,��쓌,3.0,��
2020/07/30,18:10,0.642,0.921,0.578,1.104,0.780,0.388,0.657,0.620,��쓌,3.5,��
2020/07/30,18:20,0.643,0.922,0.578,1.104,0.781,0.387,0.659,0.621,��,3.6,��
2020/07/30,18:30,0.644,0.919,0.576,1.105,0.781,0.388,0.658,0.620,��,3.3,��
2020/07/30,18:40,0.644,0.921,0.579,1.104,0.781,0.389,0.656,0.620,��,3.9,��
2020/07/30,18:50,0.643,0.923,0.578,1.107,0.779,0.388,0.658,0.621,��,4.2,��
2020/07/30,19:00,0.644,0.923,0.578,1.104,0.780,0.389,0.658,0.622,��,4.2,��
2020/07/30,19:10,0.643,0.924,0.578,1.106,0.783,0.387,0.658,0.621,��,3.6,��
2020/07/30,19:20,0.643,0.921,0.577,1.106,0.782,0.387,0.658,0.621,��,2.9,��
2020/07/30,19:30,0.643,0.922,0.578,1.105,0.784,0.389,0.657,0.624,��,3.1,��
2020/07/30,19:40,0.644,0.921,0.579,1.105,0.784,0.389,0.657,0.621,��,4.0,��
2020/07/30,19:50,0.644,0.923,0.578,1.107,0.786,0.387,0.658,0.623,��,4.1,��
2020/07/30,20:00,0.644,0.924,0.577,1.108,0.782,0.389,0.658,0.623,��,4.3,��
2020/07/30,20:10,0.644,0.923,0.580,1.106,0.782,0.389,0.658,0.622,��,4.5,��
2020/07/30,20:20,0.646,0.922,0.579,1.104,0.783,0.387,0.657,0.623,��,4.2,��
2020/07/30,20:30,0.644,0.925,0.579,1.107,0.782,0.390,0.658,0.622,��,3.8,��
2020/07/30,20:40,0.646,0.923,0.578,1.105,0.785,0.390,0.658,0.622,��,3.7,��
2020/07/30,20:50,0.646,0.923,0.577,1.106,0.785,0.390,0.659,0.622,��쓌,3.6,��
2020/07/30,21:00,0.647,0.924,0.577,1.106,0.783,0.388,0.658,0.624,��,3.4,��
2020/07/30,21:10,0.644,0.924,0.580,1.108,0.785,0.388,0.658,0.621,��,3.7,��
2020/07/30,21:20,0.646,0.925,0.578,1.108,0.783,0.388,0.660,0.623,��,3.3,��
2020/07/30,21:30,0.647,0.922,0.579,1.107,0.786,0.388,0.659,0.623,��,2.6,��
2020/07/30,21:40,0.646,0.924,0.578,1.108,0.785,0.389,0.661,0.622,��,2.3,��
2020/07/30,21:50,0.647,0.923,0.578,1.105,0.783,0.389,0.658,0.622,��,1.5,��
2020/07/30,22:00,0.647,0.923,0.580,1.107,0.782,0.391,0.659,0.623,��쓌,1.2,��
2020/07/30,22:10,0.645,0.923,0.579,1.105,0.785,0.390,0.659,0.623,��,1.9,��
2020/07/30,22:20,0.646,0.925,0.579,1.106,0.784,0.388,0.658,0.623,��쐼,1.7,��
2020/07/30,22:30,0.645,0.924,0.579,1.106,0.785,0.389,0.659,0.624,�쐼,1.2,��
2020/07/30,22:40,0.647,0.924,0.580,1.108,0.784,0.389,0.659,0.625,��쐼,1.2,��
2020/07/30,22:50,0.648,0.925,0.578,1.109,0.786,0.390,0.660,0.622,��,1.2,��
2020/07/30,23:00,0.649,0.924,0.580,1.109,0.785,0.390,0.660,0.622,�쓌,0.6,��
2020/07/30,23:10,0.648,0.925,0.579,1.107,0.786,0.391,0.660,0.623,��,1.2,��
2020/07/30,23:20,0.648,0.922,0.579,1.105,0.784,0.391,0.661,0.624,��쐼,1.4,��
2020/07/30,23:30,0.648,0.924,0.579,1.106,0.786,0.388,0.660,0.621,��,0.9,��
2020/07/30,23:40,0.649,0.923,0.581,1.107,0.787,0.390,0.659,0.622,-,CALM,��
2020/07/30,23:50,0.646,0.921,0.581,1.107,0.787,0.391,0.659,0.622,-,CALM,��
